Retour au catalogue

BREEZE-M R/B

ActifHEO
NORAD 37259·ROCKET BODY·🇷🇺 Russia

Lancé Dec 26, 2010 depuis Baikonur Cosmodrome

Loading…

Prochains Passages (prochaines 24 heures)

TLE

FraisSource: Space-Track

Époque: Sep 14, 2026, 09:58 UTC

1 37259U 10069B   26257.41539080 -.00000164  00000-0  00000-0 0  9996
2 37259  24.7466 337.5734 6137669 226.9290  64.3626  2.21632405127223

Suivez BREEZE-M R/B en temps réel avec AllMySat

Download on the App Store